sat.trackr.live / text

‹ back to catalog

ONEWEB-0300

NORAD 49089 · 2021-075Q

PAYLOAD ACTIVE UNKNOWN

§ Identity

Operator
Country
UK
Launch date
2021-08-21
Launch site
TYMSC
Launch vehicle
Mass (kg)
RCS (m²)

Purposes: comms

External: N2YO · Heavens-Above · Gunter

§ Orbital elements

Epoch: 2026-05-25T01:56:11.831136Z

Period
109.72 min
Inclination
87.8960°
Eccentricity
0.0002114
Mean motion
13.12443958 rev/d
Perigee alt
1,212.1 km
Apogee alt
1,215.3 km
Semi-major
7,591.9 km
B*
-7.1113e-4
RAAN
355.2513°
Arg perigee
80.9017°
Mean anomaly
279.2351°
Rev number
23,217

§ Raw data

ONEWEB-03001 49089U 21075Q   26145.08069249 -.00000243  00000+0 -71113-3 0  99972 49089  87.8960 355.2513 0002114  80.9017 279.2351 13.12443958232171

JSON: /api/v1/satellites/49089 · /tle

For live sub-satellite position, see the globe view (requires WebGL).

§ Visibility from observer

Set your observer location to see the next 7 days of passes ≥ 10°. The values pass through the URL so the page stays shareable.

No JS? Fill the form by hand. The geolocation button needs JavaScript.